Weather History for Hill City, KS

Change the Weather History Date:

Friday, March 15, 2013

  Actual Average Record
Temperature  
Mean Temperature 65 °F 42 °F  
Max Temperature 86 °F 56 °F 86 °F (2013)
Min Temperature 43 °F 28 °F 4 °F (1958)
Degree Days  
Heating Degree Days 2    
Growing Degree Days 14 (Base 50)    
Moisture  
Dew Point 30 °F    
Average Humidity 36    
Maximum Humidity 62    
Minimum Humidity 10    
Precipitation  
Precipitation 0.00 in 0.05 in 0.45 in (2001)
Month to date precipitation 0.08 0.67  
Year to date precipitation 1.27 1.64  
Sea Level Pressure  
Sea Level Pressure 29.81 in    
Wind  
Wind Speed 10 mph (West)    
Max Wind Speed 17 mph    
Max Gust Speed 23 mph    
Visibility 10 miles    
Events      
T = Trace of Precipitation, MM = Missing Value Source: NWS Daily Summary

Daily Weather History Graph

Daily Weather History Graph

Search for Another Location

Airport:

Trip Planner

Search our weather history database for the weather conditions in past years. The results will help you decide how hot, cold, wet, or windy it might be!

Date:

Astronomy

Mar. 15, 2013 Rise Set
Actual Time 7:50 AM CDT 7:46 PM CDT
Civil Twilight 7:23 AM CDT 8:13 PM CDT
Nautical Twilight 6:52 AM CDT 8:44 PM CDT
Astronomical Twilight 6:20 AM CDT 9:16 PM CDT
Moon 9:43 AM CDT (3/15) No Moon Set
Length of Visible Light 12h 49m
Length of Day
11h 56m
Waxing Crescent, 15% of the Moon is Illuminated
Mar 15
Waxing Crescent
Mar 19
First Quarter
Mar 27
Full
Apr 2
Last Quarter
Apr 10
New

Hourly Weather History & Observations

Time (CDT) Temp. Windchill Dew Point Humidity Pressure Visibility Wind Dir Wind Speed Gust Speed Precip Events Conditions
12:53 AM 52.0 °F - 36.0 °F 54% 30.02 in 10.0 mi SSW 6.9 mph - N/A   Clear
2:53 AM 51.1 °F - 36.0 °F 56% 29.99 in 10.0 mi SW 11.5 mph - N/A   Clear
3:53 AM 48.0 °F - 35.1 °F 61% 29.96 in 10.0 mi West 8.1 mph - N/A   Clear
4:53 AM 48.9 °F - 34.0 °F 56% 29.92 in 10.0 mi WSW 6.9 mph - N/A   Clear
5:53 AM 46.0 °F 41.9 °F 32.0 °F 58% 29.90 in 10.0 mi West 8.1 mph - N/A   Clear
6:53 AM 45.0 °F 40.6 °F 30.9 °F 58% 29.89 in 10.0 mi West 8.1 mph - N/A   Clear
7:53 AM 43.0 °F 37.7 °F 30.0 °F 60% 29.90 in 10.0 mi West 9.2 mph - N/A   Clear
8:53 AM 46.9 °F - 30.9 °F 54% 29.89 in 10.0 mi West 11.5 mph - N/A   Clear
9:53 AM 55.0 °F - 32.0 °F 42% 29.87 in 10.0 mi West 13.8 mph - N/A   Clear
10:53 AM 62.1 °F - 32.0 °F 32% 29.84 in 10.0 mi West 11.5 mph - N/A   Clear
11:53 AM 73.0 °F - 32.0 °F 22% 29.81 in 10.0 mi West 12.7 mph - N/A   Clear
12:53 PM 82.0 °F - 26.1 °F 13% 29.77 in 10.0 mi West 12.7 mph - N/A   Clear
1:53 PM 82.0 °F - 24.1 °F 12% 29.74 in 10.0 mi West 11.5 mph - N/A   Clear
2:53 PM 84.9 °F - 23.0 °F 10% 29.71 in 10.0 mi WNW 17.3 mph 23.0 mph N/A   Clear
3:53 PM 82.0 °F - 23.0 °F 11% 29.69 in 10.0 mi WNW 13.8 mph 20.7 mph N/A   Clear
4:53 PM 81.0 °F - 25.0 °F 13% 29.69 in 10.0 mi NW 11.5 mph - N/A   Clear
5:53 PM 79.0 °F - 25.0 °F 14% 29.69 in 10.0 mi WNW 13.8 mph 21.9 mph N/A   Clear
6:53 PM 73.9 °F - 27.0 °F 18% 29.69 in 10.0 mi West 5.8 mph - N/A   Clear
7:53 PM 66.9 °F - 28.9 °F 24% 29.71 in 10.0 mi West 6.9 mph - N/A   Clear
8:53 PM 61.0 °F - 28.9 °F 30% 29.73 in 10.0 mi West 6.9 mph - N/A   Clear
9:53 PM 59.0 °F - 30.0 °F 33% 29.73 in 10.0 mi North 8.1 mph - N/A   Clear
10:53 PM 60.1 °F - 28.9 °F 31% 29.74 in 10.0 mi North 17.3 mph - N/A   Clear
11:53 PM 55.9 °F - 43.0 °F 62% 29.78 in 10.0 mi NE 16.1 mph - N/A   Clear